Broken Bow, NE

4:08 PM CST on February 08, 2016 (GMT -0600)
Broken Bow Municipal

Weather History for KBBW - May, 2014

Change the Weather History Date:

Thursday, May 1, 2014

  Actual Average Record
Temperature  
Mean Temperature 46 °F 53 °F  
Max Temperature 58 °F 67 °F 93 °F (1992)
Min Temperature 33 °F 40 °F 18 °F (1989)
Degree Days  
Heating Degree Days 19 12  
Month to date heating degree days 19 12  
Cooling Degree Days 0 0  
Month to date cooling degree days 0 0  
Year to date cooling degree days 0 1  
Moisture  
Dew Point 26 °F    
Average Humidity 48    
Maximum Humidity 75    
Minimum Humidity 21    
Precipitation  
Precipitation 0.00 in 0.12 in 1.34 in (1921)
Sea Level Pressure  
Sea Level Pressure 30.04 in    
Wind  
Wind Speed 18 mph (NNW)    
Max Wind Speed 37 mph    
Max Gust Speed 45 mph    
Visibility 10 miles    
Events      
T = Trace of Precipitation, MM = Missing Value Source: NWS Daily Summary

Daily Weather History Graph

Daily Weather History Graph

Search for Another Location

Airport or City:

Trip Planner

Search our weather history database for the weather conditions in past years. The results will help you decide how hot, cold, wet, or windy it might be!

Date:

Astronomy

May. 01, 2014 Rise Set
Actual Time 6:35 AM CDT 8:36 PM CDT
Civil Twilight 6:05 AM CDT 9:06 PM CDT
Nautical Twilight 5:28 AM CDT 9:43 PM CDT
Astronomical Twilight 4:48 AM CDT 10:23 PM CDT
Moon 8:23 AM CDT (5/1) 11:11 PM CDT (5/1)
Length of Visible Light 15h 00m
Length of Day
14h 00m
Waxing Crescent, 7% of the Moon is Illuminated
May 1
Waxing Crescent
May 6
First Quarter
May 14
Full
May 21
Last Quarter
May 28
New

Hourly Weather History & Observations

Time (CDT) Temp. Windchill Dew Point Humidity Pressure Visibility Wind Dir Wind Speed Gust Speed Precip Events Conditions
12:53 AM 39.0 °F 32.8 °F 28.9 °F 67% 30.08 in 10.0 mi NW 9.2 mph - N/A   Scattered Clouds
1:53 AM 39.9 °F 32.9 °F 30.0 °F 68% 30.06 in 10.0 mi NW 11.5 mph - N/A   Partly Cloudy
2:53 AM 42.1 °F 35.2 °F 32.0 °F 67% 30.06 in 10.0 mi NNW 12.7 mph - N/A   Overcast
3:53 AM 43.0 °F 35.7 °F 32.0 °F 65% 30.05 in 10.0 mi NNW 15.0 mph - N/A   Overcast
4:53 AM 41.0 °F 33.9 °F 32.0 °F 70% 30.05 in 10.0 mi NNW 12.7 mph - N/A   Scattered Clouds
5:53 AM 39.0 °F 31.4 °F 30.9 °F 73% 30.05 in 10.0 mi WNW 12.7 mph - N/A   Mostly Cloudy
6:53 AM 39.0 °F 30.3 °F 30.0 °F 70% 30.05 in 10.0 mi NW 16.1 mph - N/A   Overcast
7:53 AM 42.1 °F 33.3 °F 30.0 °F 62% 30.05 in 10.0 mi NW 19.6 mph - N/A   Clear
8:53 AM 44.1 °F 35.4 °F 30.0 °F 58% 30.06 in 10.0 mi NW 21.9 mph 32.2 mph N/A   Clear
9:53 AM 48.9 °F - 30.9 °F 50% 30.06 in 10.0 mi NNW 25.3 mph 34.5 mph N/A   Clear
10:53 AM 51.1 °F - 27.0 °F 39% 30.06 in 10.0 mi NNW 29.9 mph 36.8 mph N/A   Clear
11:53 AM 54.0 °F - 21.9 °F 29% 30.05 in 10.0 mi NNW 29.9 mph 38.0 mph N/A   Clear
12:53 PM 53.6 °F - 21.2 °F 28% 30.03 in 10.0 mi NNW 29.9 mph 41.4 mph N/A   Clear
1:53 PM 55.9 °F - 21.0 °F 26% 30.04 in 10.0 mi NNW 32.2 mph 41.4 mph N/A   Clear
2:53 PM 57.9 °F - 19.9 °F 23% 30.03 in 10.0 mi North 26.5 mph 38.0 mph N/A   Clear
3:53 PM 57.9 °F - 23.0 °F 26% 30.03 in 10.0 mi NNW 26.5 mph 33.4 mph N/A   Clear
4:53 PM 57.9 °F - 19.0 °F 22% 30.02 in 10.0 mi NNW 25.3 mph 32.2 mph N/A   Clear
5:53 PM 57.0 °F - 18.0 °F 22% 30.01 in 10.0 mi North 27.6 mph 32.2 mph N/A   Clear
6:53 PM 57.0 °F - 21.0 °F 25% 30.01 in 10.0 mi North 20.7 mph 29.9 mph N/A   Clear
7:53 PM 54.0 °F - 25.0 °F 33% 30.02 in 10.0 mi North 18.4 mph - N/A   Clear
8:53 PM 46.0 °F 42.5 °F 27.0 °F 47% 30.04 in 10.0 mi North 6.9 mph - N/A   Clear
9:53 PM 39.9 °F 36.7 °F 27.0 °F 60% 30.04 in 10.0 mi North 4.6 mph - N/A   Clear
10:53 PM 37.0 °F - 27.0 °F 67% 30.06 in 10.0 mi Calm Calm - N/A   Clear
11:53 PM 34.0 °F - 26.1 °F 73% 30.05 in 10.0 mi Calm Calm - N/A   Clear